Regional Weather Roundup
Issued by NWS

Home | Current Version | Previous Version | Text Only | Print | Product List | Glossary On
Versions: 1 2 3 4 5 6 7 8 9 10 11 12 13 14 15 16 17 18 19 20 21 22 23 24 25 26 27 28 29 30 31 32 33 34 35 36 37 38 39 40 41 42 43 44 45 46 47 48 49 50
000
ASUS45 KREV 241110
RWRNV
NEVADA REGIONAL WEATHER ROUNDUP
NATIONAL WEATHER SERVICE RENO NV
400 AM PDT SAT JUN 24 2017

NOTE: "FAIR" INDICATES FEW OR NO CLOUDS BELOW 12,000 FEET WITH NO
SIGNIFICANT WEATHER AND/OR OBSTRUCTIONS TO VISIBILITY.

NVZ001-003-004-241200-
WESTERN NEVADA

CITY           SKY/WX    TMP DP  RH WIND       PRES   REMARKS
RENO           CLEAR     71  46  40 S3        30.16R
MINDEN         FAIR      50  45  81 E5        30.20R
FALLON         CLEAR     61  36  39 CALM      30.12S
LOVELOCK       CLEAR     68  32  26 N10       30.13S
HAWTHORNE      CLEAR     70  32  24 CALM      30.13R
$$

NVZ002-CAZ072-073-241200-
NORTHERN AND CENTRAL SIERRA

CITY           SKY/WX    TMP DP  RH WIND       PRES   REMARKS
S. LAKE TAHOE  CLEAR     53  48  83 S3        30.30R
TRUCKEE        CLEAR     50  50 100 CALM      30.29S
SQUAW VLY 8000   N/A     55  37  50 E2          N/A
SUSANVILLE     CLEAR     63  43  48 W7        30.16R
MAMMOTH LAKES  FAIR      57  38  49 W7        30.36S
BRIDGEPORT     FAIR      48  38  68 CALM      30.34S
$$

NVZ030-031-036-241200-
NORTHERN NEVADA

CITY           SKY/WX    TMP DP  RH WIND       PRES   REMARKS
ELKO           CLEAR     51  31  46 E3        30.24S
WINNEMUCCA     CLEAR     60  33  36 NE7       30.19S
WENDOVER         N/A     67  28  23 CALM      30.18R
$$

NVZ035-037-241200-
CENTRAL NEVADA

CITY           SKY/WX    TMP DP  RH WIND       PRES   REMARKS
ELY            CLEAR     44  19  36 S8        30.30R
EUREKA           N/A     47  27  45 S5        30.28R
$$

NVZ013-014-241200-
SOUTH CENTRAL NEVADA

CITY           SKY/WX    TMP DP  RH WIND       PRES   REMARKS
TONOPAH        CLEAR     68  25  19 NE10      30.20R
$$

NVZ017-020-022-241200-
SOUTHERN NEVADA

CITY           SKY/WX    TMP DP  RH WIND       PRES   REMARKS
LAS VEGAS      PTCLDY    92  24   8 NW6       29.83R
N. LAS VEGAS   CLEAR     91  21   8 N12       29.83R
NELLIS AFB     CLEAR     95  25   8 N10       29.81R
HENDERSON      CLEAR     84  33  16 E6        29.88R
MERCURY        CLEAR     85  22  10 NE13      29.95S
$$



USA.gov is the U.S. government's official web portal to all federal, state and local government web resources and services.